Cross City, FL

9:32 PM EST on December 15, 2019 (GMT -0500)
Cross City

Weather History for KCTY - October, 2019

Change the Weather History Date:

Sunday, October 13, 2019

  Actual Average Record
Temperature  
Mean Temperature 77 °F 71 °F  
Max Temperature 89 °F 83 °F 91 °F (2017)
Min Temperature 64 °F 59 °F 46 °F (2000)
Degree Days  
Heating Degree Days 0    
Month to date heating degree days 0  
Since 1 July heating degree days 0  
Cooling Degree Days 12    
Month to date cooling degree days 161  
Year to date cooling degree days 2918  
Growing Degree Days 26 (Base 50)    
Moisture  
Dew Point 66 °F    
Average Humidity 77    
Maximum Humidity 100    
Minimum Humidity 40    
Precipitation  
Precipitation 0.00 in 0.10 in 0.01 in (1999)
Month to date precipitation 0.31 1.75  
Year to date precipitation 47.78 41.58  
Sea Level Pressure  
Sea Level Pressure 30.03 in    
Wind  
Wind Speed 4 mph (South)    
Max Wind Speed 9 mph    
Max Gust Speed -    
Visibility 10 miles    
Events      
T = Trace of Precipitation, MM = Missing Value Source: NWS Daily Summary

Daily Weather History Graph

Daily Weather History Graph

Search for Another Location

Airport or City:

Astronomy

Oct. 13, 2019 Rise Set
Actual Time 7:32 AM EDT 7:04 PM EDT
Civil Twilight 7:08 AM EDT 7:28 PM EDT
Nautical Twilight 6:40 AM EDT 7:55 PM EDT
Astronomical Twilight 6:13 AM EDT 8:23 PM EDT
Moon 7:22 PM EDT (10/13) 7:12 AM EDT (10/13)
Length of Visible Light 12h 19m
Length of Day
11h 31m
Full, 100% of the Moon is Illuminated
Oct 13
Full
Oct 13
Full
Oct 21
Last Quarter
Oct 27
New
Nov 4
First Quarter

Hourly Weather History & Observations

Time (EDT) Temp. Heat Index Dew Point Humidity Pressure Visibility Wind Dir Wind Speed Gust Speed Precip Events Conditions
12:15 AM 65.5 °F - 63.0 °F 92% 30.03 in 10.0 mi Calm Calm - N/A   Clear
12:35 AM 65.3 °F - 63.1 °F 93% 30.03 in 10.0 mi Calm Calm - N/A   Clear
12:55 AM 65.7 °F - 63.0 °F 91% 30.03 in 10.0 mi East 3.5 mph - N/A   Unknown
1:15 AM 68.9 °F - 66.0 °F 90% 30.03 in 10.0 mi Calm Calm - N/A   Unknown
1:35 AM 69.4 °F - 66.6 °F 91% 30.03 in 10.0 mi Calm Calm - N/A   Unknown
1:55 AM 69.4 °F - 66.9 °F 92% 30.03 in 10.0 mi ESE 4.6 mph - N/A   Unknown
2:15 AM 69.4 °F - 66.9 °F 92% 30.03 in 10.0 mi ESE 4.6 mph - N/A   Clear
2:35 AM 69.3 °F - 66.7 °F 92% 30.02 in 10.0 mi ESE 3.5 mph - N/A   Clear
2:55 AM 68.9 °F - 66.7 °F 93% 30.02 in 10.0 mi ESE 4.6 mph - N/A   Unknown
3:15 AM 68.7 °F - 66.7 °F 93% 30.01 in 10.0 mi ESE 3.5 mph - N/A   Unknown
3:35 AM 68.7 °F - 66.7 °F 93% 30.01 in 10.0 mi Calm Calm - N/A   Unknown
3:55 AM 68.5 °F - 66.7 °F 94% 30.02 in 10.0 mi Calm Calm - N/A   Unknown
4:15 AM 68.2 °F - 66.6 °F 95% 30.01 in 10.0 mi ESE 4.6 mph - N/A   Unknown
4:35 AM 68.0 °F - 66.2 °F 94% 30.02 in 10.0 mi Calm Calm - N/A   Unknown
4:55 AM 68.5 °F - 66.7 °F 94% 30.01 in 10.0 mi SE 3.5 mph - N/A   Unknown
5:15 AM 68.4 °F - 66.7 °F 95% 30.02 in 10.0 mi ESE 3.5 mph - N/A   Unknown
5:35 AM 67.5 °F - 66.0 °F 95% 30.03 in 10.0 mi Calm Calm - N/A   Unknown
5:55 AM 67.5 °F - 66.4 °F 96% 30.03 in 10.0 mi ESE 3.5 mph - N/A   Unknown
6:15 AM 66.2 °F - 66.2 °F 100% 30.04 in 10.0 mi East 3.5 mph - N/A   Unknown
6:35 AM 66.7 °F - 66.0 °F 98% 30.04 in 10.0 mi East 3.5 mph - N/A   Unknown
6:55 AM 66.9 °F - 66.0 °F 97% 30.05 in 10.0 mi Calm Calm - N/A   Unknown
7:15 AM 65.5 °F - 64.8 °F 98% 30.05 in 10.0 mi Calm Calm - N/A   Unknown
7:35 AM 65.3 °F - 64.8 °F 98% 30.05 in 10.0 mi Calm Calm - N/A   Unknown
7:55 AM 64.2 °F - 63.5 °F 98% 30.06 in 10.0 mi Calm Calm - N/A   Unknown
8:15 AM 65.8 °F - 64.9 °F 97% 30.06 in 10.0 mi Calm Calm - N/A   Unknown
8:55 AM 71.6 °F - 68.2 °F 89% 30.06 in 10.0 mi SSE 5.8 mph - N/A   Unknown
9:15 AM 73.6 °F - 68.7 °F 85% 30.07 in 10.0 mi SSE 5.8 mph - N/A   Unknown
9:35 AM 75.2 °F - 69.8 °F 83% 30.07 in 10.0 mi SSE 5.8 mph - N/A   Unknown
9:55 AM 77.5 °F - 68.7 °F 74% 30.07 in 10.0 mi South 9.2 mph - N/A   Unknown
10:15 AM 78.8 °F - 68.4 °F 70% 30.07 in 10.0 mi South 5.8 mph - N/A   Unknown
10:35 AM 80.2 °F 83.0 °F 68.5 °F 67% 30.07 in 10.0 mi South 9.2 mph - N/A   Unknown
10:55 AM 81.0 °F 83.9 °F 68.7 °F 66% 30.07 in 10.0 mi South 8.1 mph - N/A   Unknown
11:15 AM 81.5 °F 84.4 °F 68.2 °F 64% 30.07 in 10.0 mi South 8.1 mph - N/A   Unknown
11:35 AM 83.3 °F 86.4 °F 68.2 °F 60% 30.06 in 10.0 mi South 6.9 mph - N/A   Unknown
11:55 AM 84.6 °F 87.6 °F 68.0 °F 57% 30.07 in 10.0 mi South 6.9 mph - N/A   Unknown
12:15 PM 84.4 °F 87.1 °F 67.3 °F 56% 30.06 in 10.0 mi SSE 6.9 mph - N/A   Unknown
12:35 PM 84.4 °F 87.1 °F 67.1 °F 56% 30.06 in 10.0 mi SSW 8.1 mph - N/A   Unknown
12:55 PM 84.4 °F 86.3 °F 65.7 °F 53% 30.06 in 10.0 mi SSW 4.6 mph - N/A   Unknown
1:15 PM 83.3 °F 85.5 °F 66.2 °F 56% 30.05 in 10.0 mi SSW 5.8 mph - N/A   Unknown
1:35 PM 86.0 °F 87.3 °F 64.4 °F 48% 30.04 in 10.0 mi West 5.8 mph - N/A   Unknown
1:55 PM 85.5 °F 87.4 °F 65.3 °F 51% 30.03 in 10.0 mi West 5.8 mph - N/A   Unknown
2:15 PM 87.3 °F 89.5 °F 66.2 °F 49% 30.02 in 10.0 mi South 5.8 mph - N/A   Unknown
2:35 PM 86.2 °F 88.2 °F 65.5 °F 50% 30.02 in 10.0 mi WSW 5.8 mph - N/A   Unknown
2:55 PM 86.7 °F 88.7 °F 65.7 °F 49% 30.01 in 10.0 mi West 4.6 mph - N/A   Unknown
3:35 PM 87.1 °F 89.9 °F 66.7 °F 51% 30.00 in 10.0 mi SW 5.8 mph - N/A   Unknown
3:55 PM 86.5 °F 89.3 °F 66.7 °F 52% 30.00 in 10.0 mi SSW 6.9 mph - N/A   Unknown
4:15 PM 86.7 °F 89.3 °F 66.7 °F 51% 30.00 in 10.0 mi SW 6.9 mph - N/A   Unknown
4:35 PM 86.0 °F 88.2 °F 66.2 °F 51% 30.00 in 10.0 mi SSW 9.2 mph - N/A   Unknown
4:55 PM 85.6 °F 88.2 °F 66.9 °F 53% 30.00 in 10.0 mi SSW 8.1 mph - N/A   Unknown
5:15 PM 85.1 °F 87.4 °F 66.4 °F 53% 30.01 in 10.0 mi SSW 9.2 mph - N/A   Unknown
5:35 PM 83.8 °F 85.6 °F 65.3 °F 53% 30.01 in 10.0 mi SW 6.9 mph - N/A   Unknown
5:55 PM 82.9 °F 85.0 °F 65.7 °F 56% 30.02 in 10.0 mi WSW 8.1 mph - N/A   Unknown
6:15 PM 82.0 °F 84.3 °F 66.6 °F 59% 30.02 in 10.0 mi West 6.9 mph - N/A   Unknown
6:35 PM 81.0 °F 83.2 °F 66.6 °F 61% 30.01 in 10.0 mi WSW 8.1 mph - N/A   Unknown
6:55 PM 79.0 °F - 66.6 °F 66% 30.02 in 10.0 mi West 5.8 mph - N/A   Unknown
7:15 PM 77.4 °F - 66.6 °F 69% 30.02 in 10.0 mi West 3.5 mph - N/A   Unknown
7:35 PM 75.9 °F - 66.7 °F 73% 30.03 in 10.0 mi WSW 4.6 mph - N/A   Unknown
7:55 PM 74.3 °F - 66.9 °F 78% 30.03 in 10.0 mi Calm Calm - N/A   Unknown
8:15 PM 73.0 °F - 66.9 °F 81% 30.03 in 10.0 mi Calm Calm - N/A   Unknown
8:35 PM 72.1 °F - 66.9 °F 84% 30.03 in 10.0 mi Calm Calm - N/A   Unknown
8:55 PM 70.7 °F - 66.7 °F 87% 30.03 in 10.0 mi Calm Calm - N/A   Unknown
9:35 PM 69.3 °F - 66.6 °F 91% 30.04 in 10.0 mi Calm Calm - N/A   Clear
9:55 PM 68.4 °F - 66.4 °F 93% 30.04 in 10.0 mi Calm Calm - N/A   Clear
10:15 PM 68.2 °F - 65.8 °F 92% 30.04 in 10.0 mi Calm Calm - N/A   Clear
10:35 PM 67.3 °F - 64.8 °F 92% 30.05 in 10.0 mi Calm Calm - N/A   Clear
10:55 PM 67.6 °F - 65.3 °F 92% 30.04 in 10.0 mi Calm Calm - N/A   Unknown
11:35 PM 67.3 °F - 65.1 °F 93% 30.05 in 10.0 mi Calm Calm - N/A   Unknown
11:55 PM 66.9 °F - 65.5 °F 95% 30.05 in 10.0 mi Calm Calm - N/A   Clear